AirNav   ProFlight Series 2 Aviation Headset
 
 295 users online  

PA32 St Catherine Medical Center Heliport
Ashland, Pennsylvania, USA

GOING TO ASHLAND?


FAA INFORMATION EFFECTIVE 18 JUNE 2020

Location

FAA Identifier: PA32
Lat/Long: 40-46-09.7900N 076-19-53.0100W
40-46.163167N 076-19.883500W
40.7693861,-76.3313917
(estimated)
Elevation: 1060 ft. / 323 m (estimated)
Variation: 11W (1985)
From city: 1 mile S of ASHLAND, PA
Time zone: UTC -4 (UTC -5 during Standard Time)
Zip code: 17921

Heliport Operations

Heliport use: Private use, MEDICAL USE.
Activation date: 10/1974
Control tower: no
ARTCC: NEW YORK CENTER
FSS: WILLIAMSPORT FLIGHT SERVICE STATION
Attendance: UNATNDD
Wind indicator: yes
Segmented circle: no
Lights: SS-SR

Heliport Communications

WX AWOS-3 at ZER (4 nm SW): 127.575 (570-544-2778)
WX AWOS-3 at N79 (11 nm W): 119.175 (570-672-0389)
WX AWOS-3 at 79PN (17 nm NW): 118.075 (570-271-8192)

Nearby radio navigation aids

VOR radial/distance  VOR name  Freq  Var
RAVr054/17.8RAVINE VORTAC114.6011W
MIPr144/21.5MILTON VORTAC109.2009W
SEGr101/25.1SELINSGROVE VOR/DME110.4008W
ETXr300/31.6EAST TEXAS VOR/DME110.2009W
LRPr006/39.0LANCASTER VOR/DME117.3009W
FQMr159/39.6WILLIAMSPORT VOR/DME114.4009W
FJCr284/39.9ALLENTOWN VORTAC117.5010W

 
NDB name  Hdg/Dist  Freq  Var  ID
BELLGROVE037/22.432810WBZJ -... --.. .---

Heliport Services

Airframe service: NONE
Powerplant service: NONE

Runway Information

Helipad H1

Dimensions: 75 x 75 ft. / 23 x 23 m
Surface: asphalt
Runway edge lights: PERI
Latitude: 40-46.163167N
Longitude: 076-19.883500W
Elevation: 1060.0 ft.
Traffic pattern: leftleft

Heliport Ownership and Management from official FAA records

Ownership: Publicly-owned
Owner: SAINT CATHERINE HOSPITAL OF PA, LLC
ROUTE 61
ASHLAND, PA 17921
Phone 570-875-2000
Manager: DANIEL A. COLON, PRES / CEO
101 BROAD ST.
ASHLAND, PA 19721
Phone 570-875-5818

Additional Remarks

A52-H1 LGTD BLDGS; CHIMNEY STACK & PLINES IN VICINITY.
NO NIGHT OPNS PERMITTED WITHOUT PRIOR ORIENTATION.
FOR CD CTC HARRISBURG APCH AT 800-932-0712.

Instrument Procedures

There are no published instrument procedures at PA32.

Some nearby airports with instrument procedures:

KZER - Schuylkill County/Joe Zerbey Airport (4 nm SW)
N79 - Northumberland County Airport (11 nm W)
N13 - Bloomsburg Municipal Airport (14 nm N)
74N - Bendigo Airport (16 nm SW)
8N8 - Danville Airport (18 nm NW)
 
Loc | Ops | Rwys | IFR | FBO | Links
Com | Nav | Svcs | Stats | Notes
Area around PA32 (St Catherine Medical Center Heliport)
 
Road maps at: MapQuest Bing Google
 
Aerial photo
No photo
 
Sectional chart

 
Airport distance calculator
Flying to St Catherine Medical Center Heliport? Find the distance to fly.

From to PA32

Sunrise and sunset
Times for 15-Jul-2020
 Local
(UTC-4)
 Zulu
(UTC)
Morning civil twilight05:1609:16
Sunrise05:4909:49
Sunset20:3400:34
Evening civil twilight21:0601:06

Current date and time
Zulu (UTC)  15-Jul-2020 09:07:22
Local (UTC-4)  15-Jul-2020 05:07:22
 
METAR
KHZL 
20nm NE 
150857Z AUTO 00000KT 10SM CLR 14/13 A3021 RMK AO2
KMUI 
24nm SW 
150856Z AUTO 00000KT 10SM CLR 17/16 A3013 RMK AO2 SLP203 T01710158 52010
KSEG 
24nm W 
150853Z AUTO 00000KT 10SM CLR 16/15 A3014 RMK AO2 SLP205 T01560150 53011
K22N 
26nm E 
150904Z AUTO 00000KT 7SM CLR 14/14 A3015 RMK AO2
KRDG 
29nm SE 
150854Z AUTO 00000KT 10SM CLR 19/18 A3011 RMK AO2 SLP199 T01890178 53012
KIPT 
39nm NW 
150854Z AUTO 00000KT 10SM CLR 17/15 A3014 RMK AO2 SLP202 T01720150 53010
KLNS 
39nm S 
150853Z AUTO 10003KT 10SM CLR 18/16 A3012 RMK AO2 SLP196 T01780161 53012
KMDT 
40nm SW 
150856Z 01003KT 10SM FEW250 21/16 A3011 RMK AO2 SLP195 T02060161 53011
TAF
KMUI 
24nm SW 
141900Z 1419/1601 VRB06KT 9999 SCT050 QNH2999INS BECMG 1515/1516 VRB06KT 9999 BKN050 QNH2999INS TX29/1421Z TN19/1511Z LAST NO AMDS AFT 1505 NEXT 1511
NOTAMs
Click for the latest NOTAMs
NOTAMs are issued by the DoD/FAA and will open in a separate window not controlled by AirNav.

 

 
 

Would you like to see your business listed on this page?

 If your business provides an interesting product or service to pilots, flight crews, aircraft, or users of the St Catherine Medical Center Heliport, you should consider listing it here.  To start the listing process, click on the button below
 
Add a business
 

Other Pages about St Catherine Medical Center Heliport

Update a link
 
Copyright © AirNav, LLC. All rights reserved. Privacy Policy  Contact